Overview Statistics Trail Chart Weather Telemetry Raw packets
 

This is the latest recevied weather packets stored in our database for station/object NR6G-12. If no packets are shown the sender has not sent any weather packets the latest 10 day(s).

<< 36 37 38 39 40 41 42 >>
Time Temp. Humidity Pressure Rain* Wind** Luminosity Snow
1788372612 15.56° C 54% 1019.6 hPa 0 mm - - -
1788372252 15.56° C 53% 1019.4 hPa 0 mm - - -
1788371892 16.11° C 51% 1019.4 hPa 0 mm - - -
1788371532 16.67° C 50% 1019.4 hPa 0 mm - - -
1788371172 16.67° C 49% 1019.4 hPa 0 mm - - -
1788370812 16.67° C 50% 1019.4 hPa 0 mm - - -
1788370452 16.67° C 49% 1019.5 hPa 0 mm - - -
1788370092 16.11° C 49% 1019.5 hPa 0 mm - - -
1788369732 16.67° C 50% 1019.4 hPa 0 mm - - -
1788369372 16.67° C 50% 1019.5 hPa 0 mm - - -
1788369012 16.11° C 50% 1019.4 hPa 0 mm - - -
1788368652 16.11° C 48% 1019.3 hPa 0 mm - - -
1788368292 15.56° C 47% 1019.3 hPa 0 mm - - -
1788367932 15.56° C 48% 1019.3 hPa 0 mm - - -
1788367572 15.56° C 47% 1019.3 hPa 0 mm - - -
1788367212 15° C 52% 1019.4 hPa 0 mm - - -
1788366852 15° C 53% 1019.5 hPa 0 mm - - -
1788366492 15° C 52% 1019.4 hPa 0 mm - - -
1788365772 14.44° C 54% 1019.5 hPa 0 mm - - -
1788365412 14.44° C 54% 1019.5 hPa 0 mm - - -
1788364332 14.44° C 52% 1019.5 hPa 0 mm - - -
1788363972 14.44° C 52% 1019.3 hPa 0 mm - - -
1788363612 14.44° C 52% 1019.4 hPa 0 mm - - -
1788363252 14.44° C 51% 1019.2 hPa 0 mm - - -
1788362892 14.44° C 53% 1019.2 hPa 0 mm - - -

* Rain latest hour (hover to see other rain measurements)
** Current wind speed in m/s (hover to see current wind gust speed)